Location: ????????
(37.9452°N, 23.1472°E)
Time: 11:11:48
(UTC+00:00)

CZ-2C R/B - Pass Details

Date: 18 April 2024
Orbit: 782 x 869 km, 98.3° (Epoch: 19 May)

Event Time Altitude Azimuth Distance (km) Brightness Sun altitude
Exits shadow 23:54:39 28° 60° (ENE) 1,504 4.3 -36.6°
Drops below altitude 10° 23:58:48 10° 10° (N) 2,425 5.8 -36.3°
Sets 00:01:24 0° 360° (N) 3,347 6.6 -36.0°
